Time,TemperatureF,DewpointF,PressureIn,WindDirection,WindDirectionDegrees,WindSpeedMPH,WindSpeedGustMPH,Humidity,HourlyPrecipIn,Conditions,Clouds,dailyrainin,SoftwareType,DateUTC
2013-05-02 00:00:00,68.5,4.8,30.03,East,84,8.0,8.0,8,0.00,,,0.00,Wunderground v.1.15,2013-05-02 07:00:00,
2013-05-02 00:10:00,66.3,3.1,30.05,East,80,6.0,10.0,8,0.00,,,0.00,Wunderground v.1.15,2013-05-02 07:10:00,
2013-05-02 00:19:00,67.4,3.9,30.05,ENE,58,4.0,4.0,8,0.00,,,0.00,Wunderground v.1.15,2013-05-02 07:19:00,
2013-05-02 00:30:00,65.8,5.3,30.05,NE,38,1.0,10.0,9,0.00,,,0.00,Wunderground v.1.15,2013-05-02 07:30:00,
2013-05-02 00:40:00,63.9,3.9,30.06,NE,38,0.0,10.0,9,0.00,,,0.00,Wunderground v.1.15,2013-05-02 07:40:00,
2013-05-02 00:50:00,63.8,3.8,30.06,NE,38,2.0,10.0,9,0.00,,,0.00,Wunderground v.1.15,2013-05-02 07:50:00,
2013-05-02 01:00:00,64.1,4.0,30.06,NNE,26,4.0,4.0,9,0.00,,,0.00,Wunderground v.1.15,2013-05-02 08:00:00,
2013-05-02 01:09:00,63.5,3.6,30.06,NE,48,4.0,10.0,9,0.00,,,0.00,Wunderground v.1.15,2013-05-02 08:09:00,
2013-05-02 01:20:00,63.4,3.5,30.06,ENE,61,7.0,10.0,9,0.00,,,0.00,Wunderground v.1.15,2013-05-02 08:20:00,
2013-05-02 01:30:00,65.2,4.9,30.06,ENE,60,8.0,10.0,9,0.00,,,0.00,Wunderground v.1.15,2013-05-02 08:30:00,
2013-05-02 01:40:00,65.9,2.8,30.06,NE,50,11.0,11.0,8,0.00,,,0.00,Wunderground v.1.15,2013-05-02 08:40:00,
2013-05-02 01:50:00,64.1,4.0,30.07,NE,50,11.0,11.0,9,0.00,,,0.00,Wunderground v.1.15,2013-05-02 08:50:00,
2013-05-02 02:00:00,61.2,1.8,30.07,ENE,57,10.0,10.0,9,0.00,,,0.00,Wunderground v.1.15,2013-05-02 09:00:00,
2013-05-02 02:10:00,61.2,4.1,30.07,ENE,58,10.0,10.0,10,0.00,,,0.00,Wunderground v.1.15,2013-05-02 09:10:00,
2013-05-02 02:20:00,61.4,4.2,30.08,NE,46,9.0,9.0,10,0.00,,,0.00,Wunderground v.1.15,2013-05-02 09:20:00,
2013-05-02 02:29:00,61.3,4.2,30.08,NE,44,7.0,10.0,10,0.00,,,0.00,Wunderground v.1.15,2013-05-02 09:29:00,
2013-05-02 02:40:00,62.2,2.6,30.09,NE,36,9.0,10.0,9,0.00,,,0.00,Wunderground v.1.15,2013-05-02 09:40:00,
2013-05-02 02:50:00,62.6,5.2,30.09,NE,38,9.0,9.0,10,0.00,,,0.00,Wunderground v.1.15,2013-05-02 09:50:00,
2013-05-02 02:59:00,62.7,5.2,30.10,NE,36,6.0,10.0,10,0.00,,,0.00,Wunderground v.1.15,2013-05-02 09:59:00,
2013-05-02 03:10:00,62.2,4.9,30.10,NNW,329,8.0,8.0,10,0.00,,,0.00,Wunderground v.1.15,2013-05-02 10:10:00,
2013-05-02 03:20:00,59.2,2.5,30.11,North,350,4.0,4.0,10,0.00,,,0.00,Wunderground v.1.15,2013-05-02 10:20:00,
2013-05-02 03:29:00,56.2,2.3,30.12,NNW,345,1.0,1.0,11,0.00,,,0.00,Wunderground v.1.15,2013-05-02 10:29:00,
2013-05-02 03:40:00,57.4,3.2,30.11,NNW,345,1.0,1.0,11,0.00,,,0.00,Wunderground v.1.15,2013-05-02 10:40:00,
2013-05-02 03:50:00,59.6,4.9,30.12,ENE,61,2.0,10.0,11,0.00,,,0.00,Wunderground v.1.15,2013-05-02 10:50:00,
2013-05-02 04:00:00,60.8,5.9,30.12,East,83,7.0,10.0,11,0.00,,,0.00,Wunderground v.1.15,2013-05-02 11:00:00,
2013-05-02 04:10:00,60.1,5.3,30.13,ENE,77,7.0,10.0,11,0.00,,,0.00,Wunderground v.1.15,2013-05-02 11:10:00,
2013-05-02 04:20:00,60.8,5.9,30.13,NE,54,7.0,10.0,11,0.00,,,0.00,Wunderground v.1.15,2013-05-02 11:20:00,
2013-05-02 04:30:00,60.6,5.7,30.14,NE,46,7.0,10.0,11,0.00,,,0.00,Wunderground v.1.15,2013-05-02 11:30:00,
2013-05-02 04:40:00,61.3,8.2,30.13,NE,47,9.0,10.0,12,0.00,,,0.00,Wunderground v.1.15,2013-05-02 11:40:00,
2013-05-02 04:50:00,60.8,7.8,30.14,NNE,32,8.0,10.0,12,0.00,,,0.00,Wunderground v.1.15,2013-05-02 11:50:00,
2013-05-02 05:00:00,59.7,6.9,30.14,NNE,31,6.0,6.0,12,0.00,,,0.00,Wunderground v.1.15,2013-05-02 12:00:00,
2013-05-02 05:10:00,60.1,7.2,30.14,NE,36,7.0,11.0,12,0.00,,,0.00,Wunderground v.1.15,2013-05-02 12:10:00,
2013-05-02 05:19:00,60.0,7.2,30.15,NNE,28,7.0,7.0,12,0.00,,,0.00,Wunderground v.1.15,2013-05-02 12:19:00,
2013-05-02 05:30:00,58.3,5.8,30.15,NNE,13,5.0,10.0,12,0.00,,,0.00,Wunderground v.1.15,2013-05-02 12:30:00,
2013-05-02 05:40:00,58.0,7.3,30.16,NE,42,5.0,10.0,13,0.00,,,0.00,Wunderground v.1.15,2013-05-02 12:40:00,
2013-05-02 05:50:00,56.4,6.1,30.17,NE,46,3.0,3.0,13,0.00,,,0.00,Wunderground v.1.15,2013-05-02 12:50:00,
2013-05-02 06:00:00,56.4,6.1,30.17,NE,41,3.0,10.0,13,0.00,,,0.00,Wunderground v.1.15,2013-05-02 13:00:00,
2013-05-02 06:10:00,56.5,6.2,30.18,NE,38,2.0,2.0,13,0.00,,,0.00,Wunderground v.1.15,2013-05-02 13:10:00,
2013-05-02 06:20:00,54.9,3.1,30.19,West,277,2.0,2.0,12,0.00,,,0.00,Wunderground v.1.15,2013-05-02 13:20:00,
2013-05-02 06:30:00,54.1,4.2,30.19,West,273,2.0,10.0,13,0.00,,,0.00,Wunderground v.1.15,2013-05-02 13:30:00,
2013-05-02 06:40:00,54.9,4.9,30.19,SSW,211,3.0,10.0,13,0.00,,,0.00,Wunderground v.1.15,2013-05-02 13:40:00,
2013-05-02 06:50:00,55.6,5.4,30.19,SSW,205,4.0,10.0,13,0.00,,,0.00,Wunderground v.1.15,2013-05-02 13:50:00,
2013-05-02 07:00:00,57.0,6.5,30.19,SSW,205,2.0,2.0,13,0.00,,,0.00,Wunderground v.1.15,2013-05-02 14:00:00,
2013-05-02 07:09:00,59.0,8.1,30.19,SSW,205,0.0,10.0,13,0.00,,,0.00,Wunderground v.1.15,2013-05-02 14:09:00,
2013-05-02 07:20:00,59.0,6.4,30.20,NW,322,2.0,10.0,12,0.00,,,0.00,Wunderground v.1.15,2013-05-02 14:20:00,
2013-05-02 07:30:00,58.0,5.6,30.20,West,277,3.0,3.0,12,0.00,,,0.00,Wunderground v.1.15,2013-05-02 14:30:00,
2013-05-02 07:39:00,59.0,6.4,30.20,West,277,2.0,10.0,12,0.00,,,0.00,Wunderground v.1.15,2013-05-02 14:39:00,
2013-05-02 07:50:00,59.0,6.4,30.21,WSW,244,5.0,10.0,12,0.00,,,0.00,Wunderground v.1.15,2013-05-02 14:50:00,
2013-05-02 08:00:00,59.2,6.5,30.21,SW,235,7.0,10.0,12,0.00,,,0.00,Wunderground v.1.15,2013-05-02 15:00:00,
2013-05-02 08:10:00,59.8,7.0,30.21,SW,231,8.0,8.0,12,0.00,,,0.00,Wunderground v.1.15,2013-05-02 15:10:00,
2013-05-02 08:20:00,61.4,8.3,30.21,SW,232,4.0,4.0,12,0.00,,,0.00,Wunderground v.1.15,2013-05-02 15:20:00,
2013-05-02 08:30:00,63.0,7.6,30.21,SW,232,4.0,10.0,11,0.00,,,0.00,Wunderground v.1.15,2013-05-02 15:30:00,
2013-05-02 08:39:00,63.9,8.3,30.21,WSW,250,5.0,10.0,11,0.00,,,0.00,Wunderground v.1.15,2013-05-02 15:39:00,
2013-05-02 08:50:00,65.3,9.4,30.21,West,264,7.0,10.0,11,0.00,,,0.00,Wunderground v.1.15,2013-05-02 15:50:00,
2013-05-02 09:00:00,66.9,10.6,30.20,SSW,196,7.0,7.0,11,0.00,,,0.00,Wunderground v.1.15,2013-05-02 16:00:00,
2013-05-02 09:09:00,70.6,11.3,30.20,NE,47,8.0,20.0,10,0.00,,,0.00,Wunderground v.1.15,2013-05-02 16:09:00,
2013-05-02 09:20:00,71.2,11.8,30.20,ENE,69,18.0,18.0,10,0.00,,,0.00,Wunderground v.1.15,2013-05-02 16:20:00,
2013-05-02 09:30:00,71.4,9.6,30.20,ENE,67,18.0,18.0,9,0.00,,,0.00,Wunderground v.1.15,2013-05-02 16:30:00,
2013-05-02 09:40:00,72.1,10.1,30.20,NE,56,18.0,19.0,9,0.00,,,0.00,Wunderground v.1.15,2013-05-02 16:40:00,
2013-05-02 09:50:00,73.0,10.8,30.19,NE,44,18.0,20.0,9,0.00,,,0.00,Wunderground v.1.15,2013-05-02 16:50:00,
2013-05-02 10:00:00,74.0,11.5,30.19,ENE,60,17.0,20.0,9,0.00,,,0.00,Wunderground v.1.15,2013-05-02 17:00:00,
2013-05-02 10:09:00,73.1,10.8,30.19,ENE,63,19.0,19.0,9,0.00,,,0.00,Wunderground v.1.15,2013-05-02 17:09:00,
2013-05-02 10:20:00,74.0,11.5,30.19,ENE,71,20.0,22.0,9,0.00,,,0.00,Wunderground v.1.15,2013-05-02 17:20:00,
2013-05-02 10:30:00,74.4,11.8,30.19,ENE,68,22.0,25.0,9,0.00,,,0.00,Wunderground v.1.15,2013-05-02 17:30:00,
2013-05-02 10:40:00,74.6,12.0,30.18,ENE,78,22.0,22.0,9,0.00,,,0.00,Wunderground v.1.15,2013-05-02 17:40:00,
2013-05-02 10:50:00,74.9,12.2,30.18,ENE,59,24.0,29.0,9,0.00,,,0.00,Wunderground v.1.15,2013-05-02 17:50:00,
2013-05-02 11:00:00,75.2,9.8,30.18,ENE,67,20.0,26.0,8,0.00,,,0.00,Wunderground v.1.15,2013-05-02 18:00:00,
2013-05-02 11:09:00,75.0,12.3,30.17,ENE,64,20.0,21.0,9,0.00,,,0.00,Wunderground v.1.15,2013-05-02 18:09:00,
2013-05-02 11:20:00,75.6,10.1,30.17,East,87,18.0,25.0,8,0.00,,,0.00,Wunderground v.1.15,2013-05-02 18:20:00,
2013-05-02 11:30:00,75.7,10.2,30.17,East,83,19.0,19.0,8,0.00,,,0.00,Wunderground v.1.15,2013-05-02 18:30:00,
2013-05-02 11:39:00,76.1,10.4,30.17,ENE,63,20.0,20.0,8,0.00,,,0.00,Wunderground v.1.15,2013-05-02 18:39:00,
2013-05-02 11:50:00,76.2,10.5,30.17,ENE,64,19.0,19.0,8,0.00,,,0.00,Wunderground v.1.15,2013-05-02 18:50:00,
2013-05-02 11:59:00,75.8,10.2,30.16,ENE,78,16.0,16.0,8,0.00,,,0.00,Wunderground v.1.15,2013-05-02 18:59:00,
2013-05-02 12:10:00,76.3,10.6,30.16,ENE,65,17.0,18.0,8,0.00,,,0.00,Wunderground v.1.15,2013-05-02 19:10:00,
2013-05-02 12:20:00,76.5,10.7,30.16,ENE,61,15.0,23.0,8,0.00,,,0.00,Wunderground v.1.15,2013-05-02 19:20:00,
2013-05-02 12:30:00,77.1,11.2,30.15,ENE,67,15.0,15.0,8,0.00,,,0.00,Wunderground v.1.15,2013-05-02 19:30:00,
2013-05-02 12:40:00,78.1,11.9,30.15,NE,34,13.0,15.0,8,0.00,,,0.00,Wunderground v.1.15,2013-05-02 19:40:00,
2013-05-02 12:50:00,77.6,11.6,30.15,East,87,12.0,13.0,8,0.00,,,0.00,Wunderground v.1.15,2013-05-02 19:50:00,
2013-05-02 12:59:00,78.1,11.9,30.15,East,80,10.0,16.0,8,0.00,,,0.00,Wunderground v.1.15,2013-05-02 19:59:00,
2013-05-02 13:10:00,78.3,12.1,30.14,East,83,11.0,21.0,8,0.00,,,0.00,Wunderground v.1.15,2013-05-02 20:10:00,
2013-05-02 13:20:00,77.7,11.6,30.13,ENE,65,13.0,13.0,8,0.00,,,0.00,Wunderground v.1.15,2013-05-02 20:20:00,
2013-05-02 13:30:00,78.0,11.9,30.14,NE,38,14.0,14.0,8,0.00,,,0.00,Wunderground v.1.15,2013-05-02 20:30:00,
2013-05-02 13:40:00,79.4,9.9,30.13,ENE,72,8.0,18.0,7,0.00,,,0.00,Wunderground v.1.15,2013-05-02 20:40:00,
2013-05-02 13:50:00,79.4,9.9,30.13,NE,47,11.0,14.0,7,0.00,,,0.00,Wunderground v.1.15,2013-05-02 20:50:00,
2013-05-02 13:59:00,79.4,9.9,30.13,NE,37,13.0,13.0,7,0.00,,,0.00,Wunderground v.1.15,2013-05-02 20:59:00,
2013-05-02 14:10:00,79.8,10.2,30.12,ENE,66,7.0,19.0,7,0.00,,,0.00,Wunderground v.1.15,2013-05-02 21:10:00,
2013-05-02 14:20:00,79.8,10.2,30.12,East,86,10.0,17.0,7,0.00,,,0.00,Wunderground v.1.15,2013-05-02 21:20:00,
2013-05-02 14:29:00,80.0,10.3,30.11,NE,39,11.0,11.0,7,0.00,,,0.00,Wunderground v.1.15,2013-05-02 21:29:00,
2013-05-02 14:40:00,79.8,10.2,30.11,NE,55,9.0,12.0,7,0.00,,,0.00,Wunderground v.1.15,2013-05-02 21:40:00,
2013-05-02 14:50:00,80.6,10.8,30.10,NNE,26,9.0,15.0,7,0.00,,,0.00,Wunderground v.1.15,2013-05-02 21:50:00,
2013-05-02 15:00:00,81.0,11.1,30.09,NE,46,11.0,12.0,7,0.00,,,0.00,Wunderground v.1.15,2013-05-02 22:00:00,
2013-05-02 15:10:00,80.6,10.8,30.09,ESE,103,6.0,6.0,7,0.00,,,0.00,Wunderground v.1.15,2013-05-02 22:10:00,
2013-05-02 15:19:00,80.8,10.9,30.08,ENE,62,7.0,13.0,7,0.00,,,0.00,Wunderground v.1.15,2013-05-02 22:19:00,
2013-05-02 15:30:00,81.5,11.4,30.08,East,88,7.0,10.0,7,0.00,,,0.00,Wunderground v.1.15,2013-05-02 22:30:00,
2013-05-02 15:40:00,81.6,11.5,30.07,ENE,72,10.0,10.0,7,0.00,,,0.00,Wunderground v.1.15,2013-05-02 22:40:00,
2013-05-02 15:49:00,82.0,11.8,30.07,NNE,30,9.0,9.0,7,0.00,,,0.00,Wunderground v.1.15,2013-05-02 22:49:00,
2013-05-02 16:00:00,82.0,11.8,30.06,NNE,13,8.0,8.0,7,0.00,,,0.00,Wunderground v.1.15,2013-05-02 23:00:00,
2013-05-02 16:09:00,81.6,11.5,30.06,North,360,9.0,9.0,7,0.00,,,0.00,Wunderground v.1.15,2013-05-02 23:09:00,
2013-05-02 16:20:00,81.6,11.5,30.06,ENE,61,6.0,6.0,7,0.00,,,0.00,Wunderground v.1.15,2013-05-02 23:20:00,
2013-05-02 16:29:00,81.5,11.4,30.06,NE,38,10.0,10.0,7,0.00,,,0.00,Wunderground v.1.15,2013-05-02 23:29:00,
2013-05-02 16:40:00,82.1,11.9,30.06,ENE,72,7.0,10.0,7,0.00,,,0.00,Wunderground v.1.15,2013-05-02 23:40:00,
2013-05-02 16:50:00,82.0,11.8,30.05,North,10,8.0,8.0,7,0.00,,,0.00,Wunderground v.1.15,2013-05-02 23:50:00,
2013-05-02 17:00:00,81.9,11.7,30.05,East,92,5.0,10.0,7,0.00,,,0.00,Wunderground v.1.15,2013-05-03 00:00:00,
2013-05-02 17:10:00,82.1,11.9,30.05,ENE,78,8.0,10.0,7,0.00,,,0.00,Wunderground v.1.15,2013-05-03 00:10:00,
2013-05-02 17:19:00,82.1,11.9,30.05,ENE,72,6.0,6.0,7,0.00,,,0.00,Wunderground v.1.15,2013-05-03 00:19:00,
2013-05-02 17:30:00,82.6,12.2,30.05,NNE,22,5.0,10.0,7,0.00,,,0.00,Wunderground v.1.15,2013-05-03 00:30:00,
2013-05-02 17:40:00,82.0,11.8,30.05,East,84,5.0,5.0,7,0.00,,,0.00,Wunderground v.1.15,2013-05-03 00:40:00,
2013-05-02 17:49:00,81.6,11.5,30.04,East,80,6.0,10.0,7,0.00,,,0.00,Wunderground v.1.15,2013-05-03 00:49:00,
2013-05-02 18:00:00,81.7,11.6,30.04,East,80,7.0,10.0,7,0.00,,,0.00,Wunderground v.1.15,2013-05-03 01:00:00,
2013-05-02 18:10:00,81.6,11.5,30.03,ENE,74,6.0,10.0,7,0.00,,,0.00,Wunderground v.1.15,2013-05-03 01:10:00,
2013-05-02 18:19:00,81.6,11.5,30.03,ENE,67,9.0,9.0,7,0.00,,,0.00,Wunderground v.1.15,2013-05-03 01:19:00,
2013-05-02 18:30:00,81.2,11.2,30.03,ENE,75,8.0,8.0,7,0.00,,,0.00,Wunderground v.1.15,2013-05-03 01:30:00,
2013-05-02 18:40:00,81.2,11.2,30.03,ENE,72,8.0,10.0,7,0.00,,,0.00,Wunderground v.1.15,2013-05-03 01:40:00,
2013-05-02 18:50:00,81.1,11.1,30.03,ENE,67,8.0,10.0,7,0.00,,,0.00,Wunderground v.1.15,2013-05-03 01:50:00,
2013-05-02 19:00:00,80.8,10.9,30.02,East,90,8.0,8.0,7,0.00,,,0.00,Wunderground v.1.15,2013-05-03 02:00:00,
2013-05-02 19:10:00,80.5,10.7,30.02,ENE,78,7.0,7.0,7,0.00,,,0.00,Wunderground v.1.15,2013-05-03 02:10:00,
2013-05-02 19:20:00,80.1,10.4,30.03,ENE,74,5.0,10.0,7,0.00,,,0.00,Wunderground v.1.15,2013-05-03 02:20:00,
2013-05-02 19:29:00,79.3,9.8,30.03,ENE,67,6.0,6.0,7,0.00,,,0.00,Wunderground v.1.15,2013-05-03 02:29:00,
2013-05-02 19:40:00,78.4,9.2,30.03,ENE,78,5.0,5.0,7,0.00,,,0.00,Wunderground v.1.15,2013-05-03 02:40:00,
2013-05-02 19:50:00,77.6,8.6,30.03,East,79,5.0,10.0,7,0.00,,,0.00,Wunderground v.1.15,2013-05-03 02:50:00,
2013-05-02 19:59:00,76.3,7.6,30.03,ESE,111,6.0,10.0,7,0.00,,,0.00,Wunderground v.1.15,2013-05-03 02:59:00,
2013-05-02 20:10:00,75.7,10.2,30.02,ESE,106,5.0,10.0,8,0.00,,,0.00,Wunderground v.1.15,2013-05-03 03:10:00,
2013-05-02 20:20:00,73.2,8.3,30.03,ESE,113,6.0,10.0,8,0.00,,,0.00,Wunderground v.1.15,2013-05-03 03:20:00,
2013-05-02 20:30:00,72.4,7.7,30.03,ESE,117,6.0,6.0,8,0.00,,,0.00,Wunderground v.1.15,2013-05-03 03:30:00,
2013-05-02 20:40:00,71.9,7.3,30.03,ESE,112,5.0,10.0,8,0.00,,,0.00,Wunderground v.1.15,2013-05-03 03:40:00,
2013-05-02 20:50:00,70.7,6.4,30.04,NE,38,4.0,10.0,8,0.00,,,0.00,Wunderground v.1.15,2013-05-03 03:50:00,
2013-05-02 21:00:00,68.6,7.4,30.04,NE,55,6.0,10.0,9,0.00,,,0.00,Wunderground v.1.15,2013-05-03 04:00:00,
2013-05-02 21:10:00,69.9,8.4,30.05,ENE,61,7.0,7.0,9,0.00,,,0.00,Wunderground v.1.15,2013-05-03 04:10:00,
2013-05-02 21:20:00,71.5,7.0,30.05,East,79,6.0,6.0,8,0.00,,,0.00,Wunderground v.1.15,2013-05-03 04:20:00,
2013-05-02 21:30:00,70.6,6.3,30.04,East,92,5.0,10.0,8,0.00,,,0.00,Wunderground v.1.15,2013-05-03 04:30:00,
2013-05-02 21:40:00,72.3,7.6,30.04,East,83,7.0,10.0,8,0.00,,,0.00,Wunderground v.1.15,2013-05-03 04:40:00,
2013-05-02 21:50:00,72.2,7.5,30.04,East,82,7.0,7.0,8,0.00,,,0.00,Wunderground v.1.15,2013-05-03 04:50:00,
2013-05-02 22:00:00,69.7,8.3,30.04,East,96,4.0,10.0,9,0.00,,,0.00,Wunderground v.1.15,2013-05-03 05:00:00,
2013-05-02 22:10:00,72.3,10.2,30.04,East,90,6.0,6.0,9,0.00,,,0.00,Wunderground v.1.15,2013-05-03 05:10:00,
2013-05-02 22:19:00,70.7,9.0,30.04,East,90,2.0,10.0,9,0.00,,,0.00,Wunderground v.1.15,2013-05-03 05:19:00,
2013-05-02 22:30:00,66.6,5.9,30.04,SSW,210,3.0,10.0,9,0.00,,,0.00,Wunderground v.1.15,2013-05-03 05:30:00,
2013-05-02 22:39:00,64.7,6.8,30.05,SSW,210,1.0,10.0,10,0.00,,,0.00,Wunderground v.1.15,2013-05-03 05:39:00,
2013-05-02 22:50:00,65.9,5.4,30.05,SSW,210,2.0,2.0,9,0.00,,,0.00,Wunderground v.1.15,2013-05-03 05:50:00,
2013-05-02 23:00:00,65.8,5.3,30.04,SSW,210,1.0,1.0,9,0.00,,,0.00,Wunderground v.1.15,2013-05-03 06:00:00,
2013-05-02 23:09:00,65.0,4.7,30.05,SSW,210,0.0,10.0,9,0.00,,,0.00,Wunderground v.1.15,2013-05-03 06:09:00,
2013-05-02 23:20:00,64.0,6.2,30.05,SSW,210,0.0,10.0,10,0.00,,,0.00,Wunderground v.1.15,2013-05-03 06:20:00,
2013-05-02 23:30:00,63.2,5.6,30.05,SSW,210,0.0,10.0,10,0.00,,,0.00,Wunderground v.1.15,2013-05-03 06:30:00,
2013-05-02 23:39:00,62.8,5.3,30.05,SSW,210,0.0,10.0,10,0.00,,,0.00,Wunderground v.1.15,2013-05-03 06:39:00,
2013-05-02 23:50:00,62.5,5.1,30.05,SSW,210,1.0,10.0,10,0.00,,,0.00,Wunderground v.1.15,2013-05-03 06:50:00,